Weather in Melilla

Spain     35°17′28″N   2°56′24″W
temp.,
°C
wind,
m/s
gust,
m/s
humid.,
%
clouds,
%
prec.,
mm/h
press.,
hPa
HPBL,
m
17 april, sat
sat1723:00+13se22862 0.0 101883
02:00+12ese22851 0.0 101891
05:00+12ese22855 0.0 1017100
08:00+12sse22845 0.0 101786
11:00+15sw01661 0.0 1018446
14:00+17nnw33610 0.0 1017817
17:00+17n33610 0.0 1016615
20:00+16nne11640 0.0 1017246
18 april, sun
sun1823:00+15ese11741 0.0 101931
02:00+14se22760 0.0 101829
05:00+14s11760 0.0 101722
08:00+14se017686 0.0 101819
11:00+17ne0161100 0.0 1019382
14:00+19n3355100 0.0 1019815
17:00+19nne3259100 0.0 1019496
20:00+17e3370100 0.0 1019249
19 april, mon
mon1923:00+15se227974 0.0 102157
02:00+14ese228018 0.0 102047
05:00+14ese228195 0.0 101949
08:00+14ese1180100 0.0 101841
11:00+17n11619 0.0 1018362
14:00+19nnw335761 0.0 1017681
17:00+19nw34573 0.0 1016543
20:00+18w235994 0.0 1015264
20 april, tue
tue2023:00+17sw226167 0.0 101615
02:00+17w2368100 0.0 101533
05:00+16wnw45765 0.0 101494
08:00+16wsw35743 0.0 101497
11:00+18wnw58570 0.0 1014650
14:00+19wnw8126614 0.0 1014775
17:00+18w71164100 0.0 1013766
20:00+18w61163100 0.0 1013633
21 april, wed
wed2123:00+17w696996 0.0 1014259
02:00+16w587043 0.0 1014360
05:00+15w56775 0.0 1013187
08:00+15w348084 0.0 1013141
11:00+18w355561 0.0 1014676
14:00+19nw55545 0.0 10141078
17:00+18nnw5563100 0.0 1013656
20:00+17nw2262100 0.0 1013390